Location: Unspecified
(49.2170°N, 0.0000°E)
Time: 22:57:07
(UTC+00:00)

SR - Visible Passes

Search period start: 19 June 2019 00:00
Search period end: 29 June 2019 00:00
Orbit: 582 x 874 km, 66.7° (Epoch: 19 June)

Date Brightness Start Highest point End Pass type
(mag) Time Alt. Az. Time Alt. Az. Time Alt. Az.
20 Jun ? 03:09:39 10° SE 03:12:13 16° ESE 03:14:49 10° ENE visible
22 Jun ? 03:10:58 10° S 03:14:39 30° ESE 03:18:25 10° NE visible
23 Jun ? 02:23:00 10° SE 02:25:24 15° ESE 02:27:49 10° ENE visible
25 Jun ? 02:24:11 10° S 02:27:48 28° ESE 02:31:30 10° NE visible
26 Jun ? 01:36:21 10° SE 01:38:33 14° ESE 01:40:47 10° ENE visible
27 Jun ? 02:26:49 14° SSW 02:30:21 53° ESE 02:34:37 10° NE visible
28 Jun ? 01:38:29 16° SSE 01:40:57 26° ESE 01:44:35 10° NE visible
